| time (UTC) | temp C | wind direction | speed KPH | gust KPH | rain 1hr cm | rain 24hr cm | rain mn cm | humidity % | barometer mb |
| 20260504120248 | 12 | 146 | 3.2 | 6.4 | 0.00 | 0.00 | 0.00 | 59 | 1015.9 |
| 20260504110715 | 10 | 64 | 0.0 | 0.0 | 0.00 | 0.00 | 0.00 | 69 | 1016.1 |
| 20260504110212 | 10 | 23 | 0.0 | 0.0 | 0.00 | 0.00 | 0.00 | 69 | 1016.1 |
| 20260504100136 | 10 | 4 | 0.0 | 0.0 | 0.00 | 0.00 | 0.00 | 70 | 1016.2 |
| 20260504081529 | 9 | 21 | 0.0 | 0.0 | 0.00 | 0.00 | 0.00 | 69 | 1016.5 |
| 20260504081025 | 8 | 354 | 0.0 | 0.0 | 0.00 | 0.00 | 0.00 | 70 | 1016.5 |
| 20260504080521 | 8 | 21 | 0.0 | 0.0 | 0.00 | 0.00 | 0.00 | 69 | 1016.4 |
| 20260504050334 | 7 | 56 | 0.0 | 0.0 | 0.00 | 0.00 | 0.00 | 67 | 1016.6 |
| 20260504045831 | 7 | 56 | 0.0 | 0.0 | 0.00 | 0.00 | 0.00 | 68 | 1016.7 |
| 20260504045326 | 7 | 57 | 0.0 | 0.0 | 0.00 | 0.00 | 0.00 | 70 | 1016.7 |
| 20260504044823 | 7 | 60 | 0.0 | 1.6 | 0.00 | 0.00 | 0.00 | 71 | 1016.7 |
| 20260504044320 | 7 | 54 | 0.0 | 0.0 | 0.00 | 0.00 | 0.00 | 72 | 1016.8 |
| 20260504043817 | 7 | 63 | 0.0 | 1.6 | 0.00 | 0.00 | 0.00 | 72 | 1016.7 |
| 20260504043314 | 7 | 76 | 0.0 | 1.6 | 0.00 | 0.00 | 0.00 | 73 | 1016.7 |
| 20260504042812 | 6 | 83 | 1.6 | 1.6 | 0.00 | 0.00 | 0.00 | 74 | 1016.6 |
| 20260504042308 | 6 | 75 | 0.0 | 0.0 | 0.00 | 0.00 | 0.00 | 76 | 1016.6 |
| 20260504041805 | 6 | 90 | 0.0 | 0.0 | 0.00 | 0.00 | 0.00 | 76 | 1016.6 |
| 20260504041300 | 6 | 62 | 0.0 | 0.0 | 0.00 | 0.00 | 0.00 | 77 | 1016.6 |
| 20260504040757 | 6 | 71 | 0.0 | 0.0 | 0.00 | 0.00 | 0.00 | 80 | 1016.6 |
| 20260504040255 | 6 | 70 | 0.0 | 0.0 | 0.00 | 0.00 | 0.00 | 76 | 1016.7 |
| 20260504035750 | 6 | 36 | 0.0 | 0.0 | 0.00 | 0.00 | 0.00 | 79 | 1016.5 |
| 20260504035247 | 6 | 6 | 0.0 | 0.0 | 0.00 | 0.00 | 0.00 | 79 | 1016.4 |
| 20260504034745 | 6 | 50 | 0.0 | 0.0 | 0.00 | 0.00 | 0.00 | 79 | 1016.5 |
| 20260504034242 | 6 | 44 | 0.0 | 0.0 | 0.00 | 0.00 | 0.00 | 80 | 1016.4 |
| 20260504033740 | 6 | 49 | 0.0 | 0.0 | 0.00 | 0.00 | 0.00 | 81 | 1016.5 |
| 20260504033237 | 6 | 56 | 0.0 | 0.0 | 0.00 | 0.00 | 0.00 | 76 | 1016.3 |
| 20260504032734 | 7 | 50 | 0.0 | 0.0 | 0.00 | 0.00 | 0.00 | 75 | 1016.2 |
| 20260504032231 | 7 | 45 | 0.0 | 0.0 | 0.00 | 0.00 | 0.00 | 73 | 1016.3 |
| 20260504031727 | 7 | 47 | 0.0 | 0.0 | 0.00 | 0.00 | 0.00 | 73 | 1016.1 |
| 20260504031225 | 7 | 62 | 0.0 | 0.0 | 0.00 | 0.00 | 0.00 | 74 | 1016.1 |
| 20260504030721 | 7 | 48 | 0.0 | 0.0 | 0.00 | 0.00 | 0.00 | 75 | 1016.2 |
| 20260504030218 | 7 | 45 | 0.0 | 0.0 | 0.00 | 0.00 | 0.00 | 76 | 1016.1 |
| 20260504025715 | 7 | 70 | 0.0 | 1.6 | 0.00 | 0.00 | 0.00 | 77 | 1016.2 |
| 20260504025211 | 7 | 73 | 0.0 | 0.0 | 0.00 | 0.00 | 0.00 | 77 | 1016.2 |
| 20260504024709 | 7 | 47 | 0.0 | 0.0 | 0.00 | 0.00 | 0.00 | 71 | 1016.2 |
| 20260504024205 | 7 | 55 | 0.0 | 0.0 | 0.00 | 0.00 | 0.00 | 71 | 1016.2 |
| 20260504023702 | 7 | 42 | 0.0 | 0.0 | 0.00 | 0.00 | 0.00 | 71 | 1016.1 |
| 20260504023158 | 7 | 48 | 0.0 | 0.0 | 0.00 | 0.00 | 0.00 | 72 | 1016.2 |
| 20260504022654 | 7 | 48 | 0.0 | 0.0 | 0.00 | 0.00 | 0.00 | 74 | 1016.3 |
| 20260504022150 | 7 | 49 | 0.0 | 0.0 | 0.00 | 0.00 | 0.00 | 72 | 1016.3 |
| 20260504021648 | 8 | 49 | 0.0 | 0.0 | 0.00 | 0.00 | 0.00 | 74 | 1016.3 |
| 20260504021145 | 8 | 53 | 0.0 | 0.0 | 0.00 | 0.00 | 0.00 | 67 | 1016.1 |
| 20260504020642 | 8 | 59 | 0.0 | 0.0 | 0.00 | 0.00 | 0.00 | 68 | 1016.2 |
| 20260504020137 | 8 | 55 | 0.0 | 0.0 | 0.00 | 0.00 | 0.00 | 70 | 1016.0 |
| 20260504015634 | 8 | 50 | 0.0 | 0.0 | 0.00 | 0.00 | 0.00 | 72 | 1016.1 |
| 20260504015131 | 8 | 49 | 0.0 | 0.0 | 0.00 | 0.00 | 0.00 | 72 | 1015.9 |
| 20260504014626 | 8 | 57 | 0.0 | 0.0 | 0.00 | 0.00 | 0.00 | 70 | 1016.1 |
| 20260504014124 | 8 | 60 | 0.0 | 0.0 | 0.00 | 0.00 | 0.00 | 68 | 1016.1 |
| 20260504013621 | 8 | 49 | 0.0 | 0.0 | 0.00 | 0.00 | 0.00 | 68 | 1016.1 |
| 20260504013118 | 9 | 53 | 0.0 | 0.0 | 0.00 | 0.00 | 0.00 | 64 | 1016.0 |
| 20260504012615 | 9 | 51 | 0.0 | 0.0 | 0.00 | 0.00 | 0.00 | 64 | 1016.0 |
| 20260504012113 | 9 | 50 | 0.0 | 0.0 | 0.00 | 0.00 | 0.00 | 61 | 1016.0 |
| 20260504011610 | 10 | 54 | 0.0 | 1.6 | 0.00 | 0.00 | 0.00 | 65 | 1015.7 |
| 20260504011106 | 10 | 50 | 0.0 | 0.0 | 0.00 | 0.00 | 0.00 | 57 | 1015.8 |
| 20260504010602 | 10 | 50 | 0.0 | 0.0 | 0.00 | 0.00 | 0.00 | 58 | 1015.9 |
| 20260504010058 | 10 | 50 | 0.0 | 0.0 | 0.00 | 0.00 | 0.00 | 56 | 1015.8 |
| 20260504005555 | 10 | 47 | 0.0 | 0.0 | 0.00 | 0.00 | 0.00 | 57 | 1015.9 |
| 20260504005052 | 10 | 45 | 0.0 | 0.0 | 0.00 | 0.00 | 0.00 | 56 | 1015.8 |
| 20260504004550 | 11 | 50 | 0.0 | 0.0 | 0.00 | 0.00 | 0.00 | 61 | 1015.7 |
| 20260504004047 | 11 | 68 | 0.0 | 1.6 | 0.00 | 0.00 | 0.00 | 55 | 1015.8 |
| 20260504003543 | 11 | 56 | 0.0 | 0.0 | 0.00 | 0.00 | 0.00 | 51 | 1015.5 |
| 20260504003040 | 11 | 46 | 0.0 | 0.0 | 0.00 | 0.00 | 0.00 | 46 | 1015.5 |
| 20260504002537 | 12 | 42 | 0.0 | 0.0 | 0.00 | 0.00 | 0.00 | 46 | 1015.4 |
| 20260504002034 | 12 | 56 | 0.0 | 0.0 | 0.00 | 0.00 | 0.00 | 45 | 1015.5 |
| 20260504001532 | 12 | 62 | 0.0 | 0.0 | 0.00 | 0.00 | 0.00 | 44 | 1015.4 |
| 20260504001027 | 12 | 85 | 0.0 | 1.6 | 0.00 | 0.00 | 0.00 | 43 | 1015.4 |
| 20260504000525 | 13 | 85 | 0.0 | 1.6 | 0.00 | 0.00 | 0.00 | 42 | 1015.3 |
| 20260504000023 | 13 | 71 | 0.0 | 1.6 | 0.00 | 0.00 | 0.00 | 43 | 1015.3 |
| 20260503235521 | 13 | 76 | 0.0 | 1.6 | 0.00 | 0.00 | 0.00 | 40 | 1015.3 |
| 20260503235017 | 13 | 51 | 0.0 | 0.0 | 0.00 | 0.00 | 0.00 | 40 | 1015.1 |
| 20260503234515 | 14 | 76 | 0.0 | 1.6 | 0.00 | 0.00 | 0.00 | 40 | 1015.2 |
| 20260503234013 | 14 | 28 | 1.6 | 1.6 | 0.00 | 0.00 | 0.00 | 36 | 1015.1 |
| 20260503233509 | 14 | 41 | 0.0 | 0.0 | 0.00 | 0.00 | 0.00 | 37 | 1015.0 |
| 20260503233005 | 15 | 36 | 0.0 | 0.0 | 0.00 | 0.00 | 0.00 | 36 | 1015.0 |
| 20260503232502 | 15 | 102 | 0.0 | 1.6 | 0.00 | 0.00 | 0.00 | 37 | 1014.8 |
| 20260503232000 | 15 | 47 | 0.0 | 0.0 | 0.00 | 0.00 | 0.00 | 38 | 1015.0 |
| 20260503231457 | 15 | 151 | 1.6 | 1.6 | 0.00 | 0.00 | 0.00 | 37 | 1014.9 |
| 20260503230954 | 15 | 51 | 1.6 | 1.6 | 0.00 | 0.00 | 0.00 | 34 | 1014.9 |
| 20260503230450 | 15 | 83 | 0.0 | 1.6 | 0.00 | 0.00 | 0.00 | 39 | 1014.8 |
| 20260503225948 | 15 | 56 | 0.0 | 0.0 | 0.00 | 0.00 | 0.00 | 37 | 1014.9 |
| 20260503225444 | 15 | 29 | 0.0 | 0.0 | 0.00 | 0.00 | 0.00 | 37 | 1014.9 |
| 20260503224935 | 15 | 39 | 0.0 | 1.6 | 0.00 | 0.00 | 0.00 | 36 | 1014.9 |
| 20260503224432 | 15 | 95 | 1.6 | 1.6 | 0.00 | 0.00 | 0.00 | 38 | 1015.1 |
| 20260503223930 | 15 | 26 | 1.6 | 1.6 | 0.00 | 0.00 | 0.00 | 40 | 1015.0 |
| 20260503223427 | 15 | 73 | 3.2 | 3.2 | 0.00 | 0.00 | 0.00 | 36 | 1014.9 |
| 20260503222923 | 15 | 316 | 1.6 | 1.6 | 0.00 | 0.00 | 0.00 | 37 | 1014.8 |
| 20260503222422 | 16 | 349 | 1.6 | 1.6 | 0.00 | 0.00 | 0.00 | 34 | 1014.8 |
| 20260503221920 | 16 | 4 | 0.0 | 0.0 | 0.00 | 0.00 | 0.00 | 37 | 1015.0 |
| 20260503221418 | 16 | 5 | 1.6 | 3.2 | 0.00 | 0.00 | 0.00 | 38 | 1014.9 |
| 20260503220914 | 16 | 40 | 0.0 | 0.0 | 0.00 | 0.00 | 0.00 | 36 | 1015.1 |
| 20260503220410 | 16 | 195 | 3.2 | 3.2 | 0.00 | 0.00 | 0.00 | 37 | 1014.9 |
| 20260503215908 | 16 | 17 | 3.2 | 3.2 | 0.00 | 0.00 | 0.00 | 36 | 1015.0 |
| 20260503215404 | 16 | 32 | 1.6 | 1.6 | 0.00 | 0.00 | 0.00 | 38 | 1014.9 |
| 20260503214902 | 15 | 334 | 1.6 | 1.6 | 0.00 | 0.00 | 0.00 | 40 | 1015.0 |
| 20260503214359 | 15 | 2 | 1.6 | 1.6 | 0.00 | 0.00 | 0.00 | 36 | 1015.0 |
| 20260503213856 | 16 | 359 | 6.4 | 9.7 | 0.00 | 0.00 | 0.00 | 34 | 1014.9 |
| 20260503213354 | 16 | 57 | 0.0 | 1.6 | 0.00 | 0.00 | 0.00 | 36 | 1014.9 |
| 20260503212850 | 16 | 12 | 1.6 | 1.6 | 0.00 | 0.00 | 0.00 | 36 | 1014.9 |
| 20260503212349 | 16 | 22 | 0.0 | 0.0 | 0.00 | 0.00 | 0.00 | 39 | 1015.0 |
| 20260503211845 | 16 | 21 | 3.2 | 4.8 | 0.00 | 0.00 | 0.00 | 34 | 1014.9 |
| 20260503211342 | 16 | 21 | 1.6 | 1.6 | 0.00 | 0.00 | 0.00 | 36 | 1014.7 |
| 20260503210837 | 16 | 10 | 0.0 | 1.6 | 0.00 | 0.00 | 0.00 | 36 | 1014.9 |
| 20260503210335 | 16 | 17 | 1.6 | 1.6 | 0.00 | 0.00 | 0.00 | 37 | 1014.9 |
| 20260503205830 | 16 | 19 | 3.2 | 3.2 | 0.00 | 0.00 | 0.00 | 33 | 1014.9 |
| 20260503205327 | 16 | 34 | 0.0 | 1.6 | 0.00 | 0.00 | 0.00 | 36 | 1014.8 |
| 20260503204823 | 17 | 349 | 1.6 | 1.6 | 0.00 | 0.00 | 0.00 | 34 | 1014.9 |
| 20260503204321 | 16 | 41 | 3.2 | 3.2 | 0.00 | 0.00 | 0.00 | 38 | 1014.8 |
| 20260503203818 | 16 | 321 | 4.8 | 6.4 | 0.00 | 0.00 | 0.00 | 35 | 1015.1 |
| 20260503203315 | 16 | 343 | 1.6 | 1.6 | 0.00 | 0.00 | 0.00 | 38 | 1015.2 |
| 20260503202812 | 16 | 27 | 0.0 | 0.0 | 0.00 | 0.00 | 0.00 | 35 | 1015.3 |
| 20260503202310 | 17 | 42 | 1.6 | 1.6 | 0.00 | 0.00 | 0.00 | 36 | 1015.3 |
| 20260503201808 | 17 | 102 | 1.6 | 1.6 | 0.00 | 0.00 | 0.00 | 35 | 1015.2 |
| 20260503201305 | 17 | 331 | 1.6 | 1.6 | 0.00 | 0.00 | 0.00 | 36 | 1015.4 |
| 20260503200802 | 17 | 44 | 3.2 | 4.8 | 0.00 | 0.00 | 0.00 | 38 | 1015.3 |
| 20260503200258 | 16 | 6 | 1.6 | 1.6 | 0.00 | 0.00 | 0.00 | 36 | 1015.7 |
| 20260503195755 | 16 | 306 | 1.6 | 1.6 | 0.00 | 0.00 | 0.00 | 40 | 1015.5 |
| 20260503195251 | 17 | 343 | 1.6 | 1.6 | 0.00 | 0.00 | 0.00 | 38 | 1015.7 |
| 20260503194749 | 17 | 232 | 1.6 | 3.2 | 0.00 | 0.00 | 0.00 | 36 | 1015.7 |
| 20260503194244 | 16 | 67 | 3.2 | 4.8 | 0.00 | 0.00 | 0.00 | 36 | 1015.7 |
| 20260503193740 | 16 | 1 | 0.0 | 1.6 | 0.00 | 0.00 | 0.00 | 38 | 1015.6 |
| 20260503193237 | 17 | 190 | 1.6 | 3.2 | 0.00 | 0.00 | 0.00 | 34 | 1015.8 |
| 20260503192733 | 17 | 104 | 1.6 | 1.6 | 0.00 | 0.00 | 0.00 | 36 | 1015.9 |
| 20260503192228 | 16 | 348 | 1.6 | 1.6 | 0.00 | 0.00 | 0.00 | 39 | 1015.9 |
| 20260503191725 | 16 | 57 | 3.2 | 4.8 | 0.00 | 0.00 | 0.00 | 36 | 1016.0 |
| 20260503191222 | 16 | 225 | 1.6 | 4.8 | 0.00 | 0.00 | 0.00 | 39 | 1016.1 |
| 20260503190719 | 16 | 8 | 3.2 | 4.8 | 0.00 | 0.00 | 0.00 | 38 | 1016.0 |
| 20260503190216 | 16 | 338 | 6.4 | 6.4 | 0.00 | 0.00 | 0.00 | 38 | 1016.0 |
| 20260503185714 | 17 | 335 | 1.6 | 1.6 | 0.00 | 0.00 | 0.00 | 38 | 1016.2 |
| 20260503185209 | 16 | 226 | 1.6 | 4.8 | 0.00 | 0.00 | 0.00 | 40 | 1016.2 |
| 20260503184703 | 15 | 329 | 9.7 | 12.9 | 0.00 | 0.00 | 0.00 | 42 | 1016.2 |
| 20260503184159 | 16 | 358 | 1.6 | 3.2 | 0.00 | 0.00 | 0.00 | 41 | 1016.3 |
| 20260503183656 | 16 | 4 | 0.0 | 1.6 | 0.00 | 0.00 | 0.00 | 39 | 1016.5 |
| 20260503183153 | 16 | 9 | 3.2 | 4.8 | 0.00 | 0.00 | 0.00 | 37 | 1016.5 |
| 20260503182651 | 16 | 263 | 1.6 | 1.6 | 0.00 | 0.00 | 0.00 | 39 | 1016.5 |
| 20260503182150 | 16 | 10 | 11.3 | 16.1 | 0.00 | 0.00 | 0.00 | 37 | 1016.5 |
| 20260503181646 | 15 | 355 | 1.6 | 3.2 | 0.00 | 0.00 | 0.00 | 42 | 1016.6 |
| 20260503181143 | 15 | 331 | 6.4 | 11.3 | 0.00 | 0.00 | 0.00 | 41 | 1016.5 |
| 20260503180640 | 15 | 5 | 1.6 | 1.6 | 0.00 | 0.00 | 0.00 | 42 | 1016.5 |
| 20260503180138 | 15 | 351 | 3.2 | 3.2 | 0.00 | 0.00 | 0.00 | 41 | 1016.7 |
| 20260503175634 | 13 | 42 | 3.2 | 4.8 | 0.00 | 0.00 | 0.00 | 45 | 1016.9 |
| 20260503175131 | 13 | 323 | 1.6 | 3.2 | 0.00 | 0.00 | 0.00 | 43 | 1016.7 |
| 20260503174628 | 15 | 331 | 8.0 | 9.7 | 0.00 | 0.00 | 0.00 | 44 | 1016.7 |
| 20260503174126 | 15 | 3 | 1.6 | 3.2 | 0.00 | 0.00 | 0.00 | 42 | 1016.9 |
| 20260503173620 | 14 | 345 | 1.6 | 3.2 | 0.00 | 0.00 | 0.00 | 41 | 1017.1 |
| 20260503173117 | 13 | 314 | 1.6 | 1.6 | 0.00 | 0.00 | 0.00 | 43 | 1016.9 |
| 20260503172614 | 14 | 336 | 8.0 | 11.3 | 0.00 | 0.00 | 0.00 | 44 | 1016.8 |
| 20260503172111 | 13 | 331 | 11.3 | 14.5 | 0.00 | 0.00 | 0.00 | 39 | 1016.8 |
| 20260503171608 | 15 | 21 | 4.8 | 4.8 | 0.00 | 0.00 | 0.00 | 40 | 1016.8 |
| 20260503171105 | 14 | 355 | 4.8 | 6.4 | 0.00 | 0.00 | 0.00 | 40 | 1017.0 |
| 20260503170601 | 14 | 5 | 3.2 | 3.2 | 0.00 | 0.00 | 0.00 | 39 | 1016.8 |
| 20260503150954 | 11 | 311 | 11.3 | 14.5 | 0.00 | 0.00 | 0.00 | 46 | 1017.6 |
| 20260503150450 | 11 | 351 | 9.7 | 11.3 | 0.00 | 0.00 | 0.00 | 43 | 1017.5 |
| 20260503131337 | 9 | 346 | 19.3 | 22.5 | 0.00 | 0.00 | 0.00 | 54 | 1017.8 |
| 20260503130835 | 9 | 16 | 3.2 | 3.2 | 0.00 | 0.00 | 0.00 | 58 | 1017.8 |
| 20260503130332 | 9 | 358 | 9.7 | 12.9 | 0.00 | 0.00 | 0.00 | 57 | 1017.8 |